Track STARLINK-3857 now! 10-day predictions STARLINK-3857 is classified as:
1 52494U 22049AV 22180.58334491 .00011092 00000-0 83230-4 0 9994 2 52494 53.2160 358.1568 0001508 38.3518 300.4353 15.73231961 8690